FW5262 Weather Reports


Display with metric or nautical units.
time (UTC)temp
F
wind
direction
speed
MPH
gust
MPH
rain 1hr
in
rain 24hr
in
rain mn
in
humidity
%
barometer
mb
20210921052219 83 145 1.0 7.0 0.00 0.00 0.00 43 943.4
20210921051713 83 144 1.0 4.0 0.00 0.00 0.00 43 943.4
20210921051206 83 144 1.0 4.0 0.00 0.00 0.00 43 943.5
20210921050154 84 144 3.0 9.0 0.00 0.00 0.00 43 943.4
20210921044637 83 146 1.0 4.0 0.00 0.00 0.00 43 943.1
20210921043119 83 146 2.0 5.0 0.00 0.00 0.00 43 942.9
20210921042614 82 147 1.0 6.0 0.00 0.00 0.00 42 942.9
20210921042109 82 152 0.0 5.0 0.00 0.00 0.00 42 943.2
20210921041601 82 17 0.0 0.0 0.00 0.00 0.00 42 943.1
20210921040549 81 17 1.0 6.0 0.00 0.00 0.00 41 943.2
20210921040044 81 17 1.0 6.0 0.00 0.00 0.00 41 943.0
20210921035538 80 48 0.0 6.0 0.00 0.00 0.00 41 942.9
20210921035038 80 83 0.0 0.0 0.00 0.00 0.00 41 942.8
20210921034534 80 126 0.0 0.0 0.00 0.00 0.00 40 942.7
20210921034035 80 144 0.0 0.0 0.00 0.00 0.00 40 942.4
20210921033530 80 144 0.0 0.0 0.00 0.00 0.00 39 942.3
20210921033031 80 144 0.0 0.0 0.00 0.00 0.00 39 942.2
20210921032532 80 144 0.0 0.0 0.00 0.00 0.00 38 942.2
20210921032032 80 144 0.0 0.0 0.00 0.00 0.00 37 942.1
20210921031532 80 144 0.0 0.0 0.00 0.00 0.00 37 942.0
20210921030028 81 144 0.0 0.0 0.00 0.00 0.00 36 941.5
20210921025528 82 144 0.0 0.0 0.00 0.00 0.00 36 941.4
20210921025026 82 144 0.0 0.0 0.00 0.00 0.00 35 941.2
20210921024526 83 144 0.0 0.0 0.00 0.00 0.00 34 941.2
20210921024028 83 144 0.0 0.0 0.00 0.00 0.00 33 941.1
20210921023523 83 144 0.0 0.0 0.00 0.00 0.00 33 941.0
20210921023022 84 144 0.0 0.0 0.00 0.00 0.00 33 940.9
20210921022523 84 144 0.0 0.0 0.00 0.00 0.00 34 940.8
20210921022023 84 144 0.0 0.0 0.00 0.00 0.00 33 940.7
20210921021523 85 144 0.0 0.0 0.00 0.00 0.00 32 940.6
20210921021022 85 144 0.0 0.0 0.00 0.00 0.00 31 940.6
20210921020524 86 144 0.0 0.0 0.00 0.00 0.00 30 940.5
20210921020022 87 144 0.0 0.0 0.00 0.00 0.00 30 940.4
20210921015524 87 144 0.0 0.0 0.00 0.00 0.00 29 940.3
20210921015020 87 144 0.0 0.0 0.00 0.00 0.00 30 940.3
20210921014519 88 144 1.0 4.0 0.00 0.00 0.00 29 940.2
20210921014018 88 144 1.0 4.0 0.00 0.00 0.00 29 940.2
20210921013519 89 144 1.0 4.0 0.00 0.00 0.00 29 940.0
20210921013019 89 144 2.0 4.0 0.00 0.00 0.00 28 940.0
20210921012519 90 144 3.0 5.0 0.00 0.00 0.00 28 940.0
20210921012021 90 144 2.0 5.0 0.00 0.00 0.00 28 939.9
20210921011520 91 144 2.0 5.0 0.00 0.00 0.00 28 939.9
20210921011016 91 144 3.0 8.0 0.00 0.00 0.00 28 939.8
20210921010516 91 144 3.0 8.0 0.00 0.00 0.00 28 939.8
20210921010012 92 150 2.0 7.0 0.00 0.00 0.00 27 939.8
20210921005514 92 150 3.0 8.0 0.00 0.00 0.00 27 939.7
20210921005009 93 150 3.0 8.0 0.00 0.00 0.00 27 939.6
20210921004503 93 155 3.0 6.0 0.00 0.00 0.00 27 939.6
20210921003956 94 156 3.0 8.0 0.00 0.00 0.00 26 939.6
20210921003450 94 155 3.0 8.0 0.00 0.00 0.00 26 939.6
20210921002945 94 157 3.0 7.0 0.00 0.00 0.00 26 939.6
20210921002438 95 147 3.0 8.0 0.00 0.00 0.00 25 939.5
20210921001933 96 159 4.0 9.0 0.00 0.00 0.00 25 939.4
20210921001426 96 146 4.0 8.0 0.00 0.00 0.00 25 939.3
20210921000920 97 146 3.0 8.0 0.00 0.00 0.00 25 939.3
20210921000416 98 144 5.0 10.0 0.00 0.00 0.00 24 939.4
20210920235908 98 153 6.0 10.0 0.00 0.00 0.00 24 939.4
20210920235402 98 144 6.0 10.0 0.00 0.00 0.00 24 939.4
20210920234854 98 213 6.0 13.0 0.00 0.00 0.00 24 939.4
20210920234350 99 142 6.0 14.0 0.00 0.00 0.00 24 939.4
20210920233844 99 121 6.0 14.0 0.00 0.00 0.00 24 939.4
20210920233338 99 199 6.0 12.0 0.00 0.00 0.00 24 939.4
20210920232832 100 169 6.0 13.0 0.00 0.00 0.00 23 939.4
20210920232326 100 130 6.0 13.0 0.00 0.00 0.00 24 939.3
20210920231821 100 209 6.0 17.0 0.00 0.00 0.00 24 939.4
20210920231314 100 173 6.0 16.0 0.00 0.00 0.00 23 939.4
20210920230808 100 198 7.0 14.0 0.00 0.00 0.00 24 939.4
20210920230302 100 200 7.0 14.0 0.00 0.00 0.00 24 939.5
20210920225756 100 193 7.0 14.0 0.00 0.00 0.00 24 939.5
20210920225250 99 200 6.0 12.0 0.00 0.00 0.00 24 939.5
20210920224744 99 197 6.0 11.0 0.00 0.00 0.00 24 939.5
20210920224239 98 219 6.0 12.0 0.00 0.00 0.00 24 939.5
20210920223733 99 199 7.0 14.0 0.00 0.00 0.00 24 939.6
20210920223226 99 202 7.0 14.0 0.00 0.00 0.00 24 939.6
20210920222721 99 204 7.0 13.0 0.00 0.00 0.00 23 939.6
20210920222214 99 207 8.0 15.0 0.00 0.00 0.00 24 939.7
20210920221709 99 205 8.0 15.0 0.00 0.00 0.00 24 939.7
20210920221202 98 203 7.0 12.0 0.00 0.00 0.00 24 939.7
20210920220656 98 199 7.0 15.0 0.00 0.00 0.00 24 939.7
20210920220150 98 213 7.0 15.0 0.00 0.00 0.00 25 939.8
20210920215644 98 211 8.0 15.0 0.00 0.00 0.00 25 939.8
20210920215138 98 199 8.0 15.0 0.00 0.00 0.00 25 939.8
20210920214632 98 204 8.0 18.0 0.00 0.00 0.00 25 939.8
20210920214126 99 217 7.0 18.0 0.00 0.00 0.00 25 939.8
20210920213620 99 198 8.0 18.0 0.00 0.00 0.00 25 939.8
20210920213114 99 216 9.0 18.0 0.00 0.00 0.00 25 939.8
20210920212608 100 199 8.0 14.0 0.00 0.00 0.00 25 939.9
20210920212101 101 214 8.0 14.0 0.00 0.00 0.00 25 939.9
20210920211556 100 202 7.0 16.0 0.00 0.00 0.00 26 940.0
20210920211050 100 186 9.0 20.0 0.00 0.00 0.00 26 940.0
20210920210544 101 192 9.0 20.0 0.00 0.00 0.00 26 940.0
20210920210037 101 181 9.0 15.0 0.00 0.00 0.00 28 940.0
20210920205534 100 201 8.0 16.0 0.00 0.00 0.00 27 940.0
20210920205025 100 177 7.0 16.0 0.00 0.00 0.00 28 940.1
20210920204520 100 206 8.0 19.0 0.00 0.00 0.00 29 940.2
20210920204014 100 211 10.0 19.0 0.00 0.00 0.00 28 940.3
20210920203508 100 210 8.0 17.0 0.00 0.00 0.00 28 940.2
20210920203002 99 223 8.0 20.0 0.00 0.00 0.00 29 940.3
20210920202456 99 225 8.0 20.0 0.00 0.00 0.00 29 940.4
20210920201950 99 163 8.0 17.0 0.00 0.00 0.00 29 940.3
20210920201445 99 186 9.0 17.0 0.00 0.00 0.00 29 940.4
20210920200938 99 151 9.0 19.0 0.00 0.00 0.00 29 940.5
20210920200432 99 223 9.0 19.0 0.00 0.00 0.00 29 940.5
20210920195927 98 142 9.0 19.0 0.00 0.00 0.00 30 940.5
20210920195420 98 207 10.0 20.0 0.00 0.00 0.00 29 940.5
20210920194914 98 156 10.0 20.0 0.00 0.00 0.00 30 940.6
20210920194409 98 202 9.0 18.0 0.00 0.00 0.00 32 940.6
20210920193902 98 212 10.0 18.0 0.00 0.00 0.00 32 940.8
20210920193357 98 206 9.0 18.0 0.00 0.00 0.00 32 940.8
20210920192925 98 198 9.0 18.0 0.00 0.00 0.00 32 941.0
20210920192552 98 211 9.0 15.0 0.00 0.00 0.00 33 941.0
20210920192031 98 205 9.0 24.0 0.00 0.00 0.00 33 941.0
20210920191339 97 206 9.0 24.0 0.00 0.00 0.00 34 941.0
20210920190837 97 187 10.0 21.0 0.00 0.00 0.00 32 941.3
20210920190338 97 202 11.0 21.0 0.00 0.00 0.00 34 941.3
20210920185837 97 216 10.0 20.0 0.00 0.00 0.00 34 941.4
20210920185338 96 219 8.0 18.0 0.00 0.00 0.00 36 941.4
20210920184840 96 221 8.0 16.0 0.00 0.00 0.00 39 941.4
20210920184339 96 211 8.0 16.0 0.00 0.00 0.00 41 941.5
20210920183838 95 189 8.0 15.0 0.00 0.00 0.00 42 941.6
20210920183339 95 161 8.0 19.0 0.00 0.00 0.00 42 941.7
20210920182843 94 213 8.0 19.0 0.00 0.00 0.00 43 941.8
20210920182340 94 166 8.0 15.0 0.00 0.00 0.00 43 941.8
20210920181838 94 184 8.0 15.0 0.00 0.00 0.00 44 941.8
20210920181337 94 175 9.0 17.0 0.00 0.00 0.00 45 941.9
20210920180837 93 144 8.0 17.0 0.00 0.00 0.00 45 941.9
20210920180339 93 213 8.0 16.0 0.00 0.00 0.00 46 942.0
20210920175834 93 175 9.0 18.0 0.00 0.00 0.00 46 942.1
20210920175334 92 211 9.0 18.0 0.00 0.00 0.00 47 942.2
20210920174833 92 144 9.0 17.0 0.00 0.00 0.00 47 942.3
20210920174334 92 215 8.0 17.0 0.00 0.00 0.00 48 942.3
20210920173834 92 165 8.0 16.0 0.00 0.00 0.00 49 942.4
20210920173334 91 207 9.0 18.0 0.00 0.00 0.00 49 942.4
20210920172834 91 195 8.0 18.0 0.00 0.00 0.00 49 942.5
20210920172334 91 197 8.0 16.0 0.00 0.00 0.00 51 942.6
20210920171835 90 200 8.0 16.0 0.00 0.00 0.00 52 942.6
20210920171331 89 202 8.0 15.0 0.00 0.00 0.00 53 942.7
20210920170831 88 186 7.0 15.0 0.00 0.00 0.00 54 942.7
20210920170330 87 200 6.0 13.0 0.00 0.00 0.00 56 942.7
20210920165830 86 208 9.0 15.0 0.00 0.00 0.00 57 942.8
20210920165330 86 202 9.0 18.0 0.00 0.00 0.00 55 942.8
20210920164829 86 201 8.0 18.0 0.00 0.00 0.00 55 942.8
20210920164329 86 209 8.0 17.0 0.00 0.00 0.00 55 942.8
20210920163829 87 204 7.0 13.0 0.00 0.00 0.00 58 942.9
20210920163331 86 214 7.0 14.0 0.00 0.00 0.00 59 942.8
20210920162823 85 213 8.0 14.0 0.00 0.00 0.00 60 943.0
20210920162317 85 155 8.0 15.0 0.00 0.00 0.00 59 943.0
20210920161813 85 219 7.0 15.0 0.00 0.00 0.00 60 943.0
20210920161306 84 166 6.0 11.0 0.00 0.00 0.00 61 943.0
20210920160800 84 146 7.0 12.0 0.00 0.00 0.00 61 943.0
20210920160254 84 205 7.0 15.0 0.00 0.00 0.00 61 942.9
20210920155748 84 208 7.0 15.0 0.00 0.00 0.00 62 942.8
20210920155241 83 180 7.0 12.0 0.00 0.00 0.00 63 942.7
20210920154736 82 199 8.0 14.0 0.00 0.00 0.00 63 942.8
20210920154230 82 200 8.0 15.0 0.00 0.00 0.00 64 942.6
20210920153730 81 202 7.0 15.0 0.00 0.00 0.00 65 942.7
20210920153227 80 202 8.0 18.0 0.00 0.00 0.00 65 942.6
20210920152727 80 219 7.0 18.0 0.00 0.00 0.00 65 942.6
20210920152228 80 205 8.0 15.0 0.00 0.00 0.00 65 942.5
20210920151726 80 227 9.0 18.0 0.00 0.00 0.00 65 942.5
20210920151227 80 216 9.0 18.0 0.00 0.00 0.00 65 942.5
20210920150728 80 216 8.0 18.0 0.00 0.00 0.00 65 942.5
20210920150227 80 209 8.0 18.0 0.00 0.00 0.00 65 942.4
20210920145727 80 198 9.0 16.0 0.00 0.00 0.00 65 942.3
20210920145224 80 204 10.0 19.0 0.00 0.00 0.00 65 942.3
20210920144722 80 220 9.0 19.0 0.00 0.00 0.00 65 942.2
20210920144221 80 192 8.0 16.0 0.00 0.00 0.00 66 942.1
20210920143719 79 202 8.0 17.0 0.00 0.00 0.00 66 942.1
20210920143219 79 210 8.0 17.0 0.00 0.00 0.00 67 942.0
20210920142719 79 196 9.0 16.0 0.00 0.00 0.00 67 941.9
20210920142219 78 198 8.0 16.0 0.00 0.00 0.00 68 941.9
20210920141721 78 214 8.0 14.0 0.00 0.00 0.00 68 941.9
20210920141220 78 200 8.0 14.0 0.00 0.00 0.00 68 941.9
20210920140714 77 158 7.0 14.0 0.00 0.00 0.00 69 941.9
20210920140209 77 210 6.0 12.0 0.00 0.00 0.00 69 941.9
20210920135702 76 209 5.0 8.0 0.00 0.00 0.00 70 941.9
20210920135156 76 207 5.0 9.0 0.00 0.00 0.00 70 941.8
20210920134650 75 206 5.0 10.0 0.00 0.00 0.00 71 941.8
20210920134144 75 208 4.0 10.0 0.00 0.00 0.00 71 941.9
20210920133638 74 205 3.0 8.0 0.00 0.00 0.00 72 941.9
20210920133131 74 204 3.0 8.0 0.00 0.00 0.00 71 941.8
20210920132625 73 208 3.0 7.0 0.00 0.00 0.00 72 941.8
20210920132120 73 209 3.0 9.0 0.00 0.00 0.00 72 941.7
20210920131614 72 207 4.0 11.0 0.00 0.00 0.00 73 941.7
20210920131107 72 198 5.0 11.0 0.00 0.00 0.00 73 941.6
20210920130601 71 194 5.0 10.0 0.00 0.00 0.00 73 941.6
20210920130057 70 205 4.0 10.0 0.00 0.00 0.00 74 941.5
20210920125550 70 202 1.0 6.0 0.00 0.00 0.00 73 941.5
20210920125043 69 201 1.0 4.0 0.00 0.00 0.00 72 941.5
20210920124537 69 202 1.0 4.0 0.00 0.00 0.00 72 941.5
20210920124031 69 203 0.0 3.0 0.00 0.00 0.00 72 941.5
20210920123525 69 204 0.0 4.0 0.00 0.00 0.00 72 941.4
20210920123020 69 204 0.0 4.0 0.00 0.00 0.00 72 941.4
20210920122513 70 204 0.0 0.0 0.00 0.00 0.00 71 941.3
20210920122008 70 204 0.0 0.0 0.00 0.00 0.00 71 941.3
20210920121502 70 204 0.0 0.0 0.00 0.00 0.00 71 941.3
20210920120957 70 204 0.0 0.0 0.00 0.00 0.00 71 941.2
20210920120450 70 204 0.0 3.0 0.00 0.00 0.00 71 941.1
20210920115945 70 204 2.0 4.0 0.00 0.00 0.00 71 941.0
20210920115438 70 204 3.0 6.0 0.00 0.00 0.00 71 941.0
20210920114931 70 204 3.0 6.0 0.00 0.00 0.00 71 941.0
20210920114426 71 204 4.0 7.0 0.00 0.00 0.00 71 941.0
20210920113920 71 204 4.0 7.0 0.00 0.00 0.00 71 941.0
20210920113414 71 204 4.0 7.0 0.00 0.00 0.00 71 941.0
20210920112908 71 203 4.0 8.0 0.00 0.00 0.00 71 940.9
20210920112402 71 202 4.0 8.0 0.00 0.00 0.00 71 940.9
20210920111856 71 198 4.0 7.0 0.00 0.00 0.00 71 940.9
20210920111349 71 201 4.0 7.0 0.00 0.00 0.00 71 940.8
20210920110844 70 200 4.0 8.0 0.00 0.00 0.00 71 940.8
20210920110339 70 198 5.0 8.0 0.00 0.00 0.00 71 940.8
20210920105832 70 202 5.0 7.0 0.00 0.00 0.00 71 940.7
20210920105325 70 201 2.0 7.0 0.00 0.00 0.00 71 940.7
20210920104820 69 196 0.0 6.0 0.00 0.00 0.00 72 940.7
20210920104314 69 186 0.0 0.0 0.00 0.00 0.00 71 940.8
20210920103808 69 184 0.0 0.0 0.00 0.00 0.00 72 940.8
20210920103304 69 184 0.0 0.0 0.00 0.00 0.00 72 940.8
20210920102805 68 183 0.0 0.0 0.00 0.00 0.00 71 940.7
20210920102306 68 183 0.0 0.0 0.00 0.00 0.00 71 940.6
20210920101801 68 182 0.0 0.0 0.00 0.00 0.00 70 940.6
20210920101301 68 184 0.0 0.0 0.00 0.00 0.00 71 940.6
20210920100758 68 184 0.0 0.0 0.00 0.00 0.00 72 940.6
20210920093256 67 169 0.0 0.0 0.00 0.00 0.00 68 940.8
20210920083752 67 170 0.0 0.0 0.00 0.00 0.00 67 941.0
20210920080248 68 170 0.0 0.0 0.00 0.00 0.00 65 941.3
20210920074225 69 170 0.0 0.0 0.00 0.00 0.00 64 941.5
20210920073718 69 171 0.0 0.0 0.00 0.00 0.00 63 941.5
20210920073213 69 171 0.0 0.0 0.00 0.00 0.00 63 941.5
20210920072707 69 171 0.0 0.0 0.00 0.00 0.00 62 941.6
20210920071654 69 170 0.0 0.0 0.00 0.00 0.00 61 941.7
20210920071149 69 170 0.0 0.0 0.00 0.00 0.00 60 941.7
20210920070644 69 170 0.0 0.0 0.00 0.00 0.00 60 941.7
20210920070137 69 171 0.0 0.0 0.00 0.00 0.00 60 941.7
20210920064619 69 171 0.0 0.0 0.00 0.00 0.00 60 941.8
20210920064113 69 171 0.0 0.0 0.00 0.00 0.00 60 941.9
20210920063606 70 171 0.0 0.0 0.00 0.00 0.00 60 941.9
20210920063101 70 171 0.0 0.0 0.00 0.00 0.00 62 942.0
20210920062555 70 171 0.0 0.0 0.00 0.00 0.00 59 942.0
20210920061543 71 171 0.0 0.0 0.00 0.00 0.00 59 941.9
20210920061036 72 171 0.0 0.0 0.00 0.00 0.00 58 941.8
20210920060531 73 171 0.0 0.0 0.00 0.00 0.00 57 941.9
20210920060025 73 171 0.0 0.0 0.00 0.00 0.00 56 941.9
20210920055519 74 171 0.0 0.0 0.00 0.00 0.00 54 941.9
20210920055013 74 171 0.0 0.0 0.00 0.00 0.00 54 941.8
20210920054507 74 171 0.0 0.0 0.00 0.00 0.00 54 941.8